{"data":{"norad_id":66964,"intl_designator":"2025-288F","name":"STARLINK-36104","alt_names":[],"object_type":"PAYLOAD","status":"ACTIVE","operator":null,"country":"US","launch_date":"2025-12-08","launch_site_code":"AFETR","launch_vehicle":null,"mission":null,"orbit_class":"UNKNOWN","rcs_meters":null,"size_class":null,"mass_kg":null,"dimensions":null,"purposes":["comms"],"wikipedia_slug":null,"has_3d_model":false,"image_url":null,"decayed_at":null,"tle_current":{"epoch":"2026-05-25T04:34:54.642144Z","epoch_age_seconds":58611,"freshness":"FRESH","line1":"1 66964U 25288F   26145.19091021  .00011047  00000+0  41018-3 0  9996","line2":"2 66964  43.0007 311.7362 0002324 271.8790  88.1795 15.27594244 26981","mean_motion":15.27594244,"eccentricity":0.0002324,"inclination_deg":43.0007,"raan_deg":311.7362,"arg_perigee_deg":271.879,"mean_anomaly_deg":88.1795,"bstar":0.00041018,"rev_number":2698,"period_min":94.265869726595,"perigee_km":481.41191497427,"apogee_km":484.60097444737,"semimajor_km":6861.1434447108,"source":"CELESTRAK","updated_at":"2026-05-25T13:38:21.393675Z"}}}